Location: Horowhenua
(40.7500°S, 175.3333°E)
Time: 05:45:05
(UTC+00:00)

USA 215 - Pass Details

Date: 28 January 2023
Orbit: 1102 x 1105 km, 123.0° (Epoch: 27 March)

Event Time Altitude Azimuth Distance (km) Brightness Sun altitude
Rises 16:30:41 0° 72° (ENE) 3,930 6.8 -9.2°
Reaches altitude 10° 16:33:15 10° 77° (ENE) 2,976 6.2 -8.8°
Maximum altitude 16:39:30 48° 148° (SSE) 1,424 4.4 -7.8°
Drops below altitude 10° 16:45:47 10° 220° (SW) 2,993 5.5 -6.8°
Sets 16:48:21 0° 224° (SW) 3,954 6.0 -6.3°
